Portada
METAR-TAF:

METAR-TAF

Aeropuertos :

Aeródromo de Teruel

Teruel, España

latitud: 40-24-43N, longitud: 01-13-03W, altitud: 1030 m

Observación

El informe se hizo hace 39 minutos, a las 15:00 UTC
Viento 11 kt del norte, variando entre norte-noroeste y noreste
Temperatura 24°C
Humedad 50%
Presión 1020 hPa
Visibilidad 10 km o más

METAR: LETL 171500Z AUTO 36011KT 330V040 9999 ////// 24/13 Q1020

Hora: 17:39 (15:39 UTC)


TAF: falta

Observaciones y pronósticos meteorológicos de más de 4000 aeropuertos (mensajes METAR y TAF).

Los puntos amarillos y rojos representan las estaciones disponibles.

Ponga el ratón en el punto deseado para ver el nombre de la estación.

Haga clic para ver las observaciones y los pronósticos meteorológicos.

Para cambiar el mapa : haga clic en los botones verdes con una cruz de color negro para hacer un zoom, en el botón verde con un guión para alejar o en las flechas verdes para mapas adyacentes.


METAR-TAF: